Regional Weather Roundup
Issued by NWS Sioux Falls, SD

Home | Current Version | Previous Version | Text Only | Print | Product List | Glossary On
Versions: 1 2 3 4 5 6 7 8 9 10 11 12 13 14 15 16 17 18 19 20 21 22 23 24 25 26 27 28 29 30 31 32 33 34 35 36 37 38 39 40 41 42 43 44 45 46 47 48 49 50
000
ASUS43 KFSD 281710
RWRFSD

WEATHER ROUNDUP FOR SE SOUTH DAKOTA/SW MINNESOTA/NW IOWA
NATIONAL WEATHER SERVICE SIOUX FALLS SD
1200 PM CDT WED SEP 28 2016

NOTE: "FAIR" INDICATES FEW OR NO CLOUDS BELOW 12,000 FEET WITH NO
SIGNIFICANT WEATHER AND OR OBSTRUCTIONS TO VISIBILITY.


SDZ038>040-050-052>070-281800-
SOUTHEAST SOUTH DAKOTA

CITY           SKY/WX    TMP DP  RH WIND       PRES   REMARKS
BROOKINGS      SUNNY     52  45  77 N8        30.25R
CHAMBERLAIN    SUNNY     60  46  59 NE5       30.27S
HURON          SUNNY     58  44  60 N8        30.26S
MADISON        FAIR      55  46  71 N10       30.25R
MITCHELL       MOSUNNY   54  44  69 N8        30.28R
SIOUX FALLS    MOSUNNY   58  46  64 NE8       30.24R
WINNER         FAIR      64  39  39 E7        30.27R
YANKTON        MOSUNNY   57  45  62 NW10      30.23R
$$

MNZ071-072-080-081-089-090-097-098-281800-
SOUTHWEST MINNESOTA

CITY           SKY/WX    TMP DP  RH WIND       PRES   REMARKS
FAIRMONT       CLOUDY    56  47  71 N13G21    30.19R
JACKSON        PTSUNNY   55  45  67 N15G21    30.20R
LUVERNE        CLOUDY    48  43  81 N7        30.25R
MARSHALL       CLOUDY    52  45  77 N9        30.25R
MONTEVIDEO     CLOUDY    57  48  72 N10       30.25S
PIPESTONE      CLOUDY    48  45  87 N8        30.24R
REDWOOD FALLS  CLOUDY    58  47  66 N9        30.21R
TRACY          CLOUDY    54  47  78 N10       30.23S
WINDOM         PTSUNNY   55  46  71 N14       30.21R
WORTHINGTON    CLOUDY    51  45  79 N12       30.23R
$$

IAZ001>003-012>014-020>022-031-032-NEZ013-014-SDZ071-281800-
NORTHWEST IOWA

CITY           SKY/WX    TMP DP  RH WIND       PRES   REMARKS
CHEROKEE       CLOUDY    52  47  83 N8        30.22R
DENISON        CLOUDY    54  46  76 N12       30.18R
ESTHERVILLE    PTSUNNY   57  48  72 N15G23    30.18R
LE MARS        CLOUDY    54  46  76 N9        30.24R
ORANGE CITY    CLOUDY    52  46  82 NE8       30.23R
SHELDON        CLOUDY    50  46  87 VRB6G13   30.21S
SIOUX CITY     MOSUNNY   57  47  69 N7        30.23R
SPENCER        CLOUDY    55  47  74 N10       30.20R
STORM LAKE     CLOUDY    54  46  76 N10G17    30.19S
$$

ABBREVIATIONS USED IN REMARKS
   TC - TEMPERATURE IN CELSIUS
  WCI - WIND CHILL INDEX
   HX - HEAT INDEX
  VSB - VISIBILITY





USA.gov is the U.S. government's official web portal to all federal, state and local government web resources and services.